Regional Weather Roundup
Issued by NWS

Home | Current Version | Previous Version | Text Only | Print | Product List | Glossary Off
Versions: 1 2 3 4 5 6 7 8 9 10 11 12 13 14 15 16 17 18 19 20 21 22 23 24 25 26 27 28 29 30 31 32 33 34 35 36 37 38 39 40 41 42 43 44 45 46 47 48 49 50

000
ASUS43 KMKX 012000
RWRWI

WISCONSIN REGIONAL WEATHER ROUNDUP
NATIONAL WEATHER SERVICE MILWAUKEE/SULLIVAN WI
300 PM CDT FRI AUG 01 2014

NOTE: "FAIR" INDICATES FEW OR NO CLOUDS BELOW 12,000 FEET WITH NO
SIGNIFICANT WEATHER AND/OR OBSTRUCTIONS TO VISIBILITY.

WIZ001-002-006>008-014>016-023>028-012100-
NORTHWEST WISCONSIN

CITY           SKY/WX    TMP DP  RH WIND       PRES   REMARKS
SUPERIOR ARPT  MOSUNNY   70  56  60 NE5       30.07S
ASHLAND        PTSUNNY   77  58  51 N6        30.08S
HAYWARD        MOSUNNY   80  52  37 NW6       30.08S HX  80
SIREN          SUNNY     81  51  36 N3        30.07S HX  80
RICE LAKE      MOSUNNY   79  57  46 NW3       30.09S HX  80
LADYSMITH      MOSUNNY   78  59  50 N7        30.08F HX  80
EAU CLAIRE     PTSUNNY   79  60  52 N3        30.05S THUNDER HX  80
MENOMONIE      PTCLDY    82  57  42 NW8       30.05F HX  82
NEW RICHMOND   MOSUNNY   82  54  38 W7        30.07F HX  81
OSCEOLA        SUNNY     82  57  43 W6        30.09S HX  81
$$

WIZ003>005-009-010-017-018-012100-
NORTH CENTRAL WISCONSIN

CITY           SKY/WX    TMP DP  RH WIND       PRES   REMARKS
WOODRUFF       MOSUNNY   80  50  35 N5        30.09R
RHINELANDER    SUNNY     77  52  41 VRB5      30.09R
EAGLE RIVER    MOSUNNY   76  47  35 N6        30.08S
LAND O LAKES   MOSUNNY   75  46  35 NW6       30.10S
PHILLIPS       MOSUNNY   77  56  49 N5        30.08R
TOMAHAWK       MOSUNNY   77  55  45 CALM      30.08R
MEDFORD        PTSUNNY   76  61  61 NW8       30.07S
MERRILL        PTSUNNY   77  59  53 CALM      30.06S
$$

WIZ029-030-035-036-043>047-012100-
CENTRAL WISCONSIN

CITY           SKY/WX    TMP DP  RH WIND       PRES   REMARKS
WAUSAU         LGT RAIN  66  63  90 N3        30.05S
MOSINEE        NOT AVBL
MARSHFIELD     TSTM      73  66  78 NW5       30.06S
STEVENS POINT  PTSUNNY   78  61  56 SW7       30.05F HX  80
WAUPACA        PTSUNNY   85  55  36 W8        30.05R HX  84
WAUTOMA        NOT AVBL
WISC RAPIDS    MOSUNNY   82  63  52 W10       30.06S HX  83
CAMP DOUGLAS   NOT AVBL
$$

WIZ011>013-019>022-031-037>040-048>050-012100-
NORTHEAST WISCONSIN

CITY           SKY/WX    TMP DP  RH WIND       PRES   REMARKS
ANTIGO         MOSUNNY   75  55  49 W6        30.07S
STURGEON BAY   MOSUNNY   77  63  61 E5        30.05S
GREEN BAY      PTSUNNY   80  61  52 SW5       30.03F HX  81
MANITOWOC      NOT AVBL
APPLETON       PTSUNNY   77  57  50 SW6       30.06S THUNDER
CLINTONVILLE   PTSUNNY   68  55  64 W3        30.05S
OSHKOSH        PTSUNNY   74  58  57 SW8       30.05R THUNDER
$$

WIZ032>034-041-042-053>061-012100-
SOUTHWEST WISCONSIN

CITY           SKY/WX    TMP DP  RH WIND       PRES   REMARKS
LA CROSSE      SUNNY     84  59  42 VRB6      30.05F HX  84
SPARTA         SUNNY     82  55  40 W10G16    30.07S HX  81
VIROQUA        FAIR      80  59  48 W6        30.09S HX  80
BOSCOBEL       MOSUNNY   86  56  35 VRB6      30.06F HX  85
PRAIRIE DU CHI SUNNY     82  52  34 S3        30.06S HX  81
PLATTEVILLE    FAIR      81  54  39 SW5       30.09S HX  81
$$

WIZ056-057-062-063-064-067-068-012100-
SOUTH CENTRAL WISCONSIN

CITY           SKY/WX    TMP DP  RH WIND       PRES   REMARKS
BARABOO/DELLS  MOSUNNY   84  54  35 W6        30.05F HX  82
LONE ROCK      NOT AVBL
WATERTOWN      PTSUNNY   82  60  47 W7        30.05F HX  82
MADISON        MOSUNNY   84  57  39 SW6       30.05F HX  83
MIDDLETON      MOCLDY    83  52  34 W6        30.07S HX  81
MONROE         SUNNY     82  52  34 CALM      30.07F HX  81
JANESVILLE     MOSUNNY   84  48  28 NW6       30.05F HX  82
$$

WIZ051-052-058>065-066-070>072-012100-
SOUTHEAST WISCONSIN

CITY           SKY/WX    TMP DP  RH WIND       PRES   REMARKS
MILWAUKEE      PTSUNNY   83  56  39 W8        30.04F HX  82
WAUKESHA       MOSUNNY   81  55  41 MISG      30.06F HX  80
MILWAUKEE/TIMM SUNNY     82  52  34 W12       30.05F HX  81
RACINE         MOSUNNY   80  60  50 SE9       30.07S HX  81
BURLINGTON     MOSUNNY   81  53  37 SW5       30.06F HX  80
KENOSHA        PTSUNNY   82  58  43 W3        30.06S HX  82
FOND DU LAC    PTSUNNY   78  61  55 NW17G24   30.05S THUNDER HX  80
SHEBOYGAN      MOSUNNY   81  59  47 CALM      30.04F HX  81
WEST BEND      MOSUNNY   81  55  41 SW5       30.04F HX  80
JUNEAU         PTSUNNY   81  53  37 NW7       30.07S HX  80
$$

LSZ147-162-012100-
LAKE SUPERIOR

STATION/POSITION TIME  TEMP    WIND        PRES    WAVE
                       AIR SEA DIR/SP/G            HT/PER
                 (UTC) (F)     (DEG/KT/KT) (MB)    (FT/S)
W MID LAKE BUOY  1850   50 45  100/  6/  8 1019.0R   0
PORT WING        1900   63      20/  6/  7 1018.6S
SAXON HARBOR     1900           CALM  /  3 1019.0
$$

LMZ867-665-643>646-012100-
LAKE MICHIGAN

STATION/POSITION TIME  TEMP    WIND        PRES    WAVE
                       AIR SEA DIR/SP/G            HT/PER
                 (UTC) (F)     (DEG/KT/KT) (MB)    (FT/S)
N MID LAKE BUOY  1850   61 60   70/  4/  6 1017.7S   1
NORTHPORT PIER   1900   63     140/  8/  8 1017.6S
ALGOMA LAKESHORE 1806             CALM       N/A
KEWAUNEE LAKESHO 1900   63     150/  5/  5 1017.0F
SHEBOYGAN LAKESH 1900   70     170/ 14/ 15 1017.3F
PORT WASHINGTON  1940   74     190/  7/  9 1017.6F
ATWATER BUOY     1900   68     130/ 10     1018.5F
MILWAUKEE LAKESH 1900   68     130/ 11/ 12   N/A
S MID LAKE BUOY  1850   69 68  220/  2/  2 1018.5F   0
KENOSHA   LAKESH 1900   76     130/  9/ 10 1017.3F
$$

TC  - TEMPERATURE IN CELSIUS
VSB - VISIBILITY IN STATUTE MILES
WCI - WIND CHILL INDEX
HX  - HEAT INDEX




USA.gov is the U.S. government's official web portal to all federal, state and local government web resources and services.